Bentonville, AR

9:54 PM CDT on August 25, 2016 (GMT -0500)
Bentonville Municipal-Thaden

Weather History for KVBT - April, 2014

Change the Weather History Date:

Saturday, April 26, 2014

  Actual Average Record
Temperature  
Mean Temperature 66 °F -  
Max Temperature 80 °F 71 °F 85 °F (1954)
Min Temperature 53 °F 47 °F 32 °F (1976)
Cooling Degree Days 2    
Growing Degree Days 16 (Base 50)    
Moisture  
Dew Point 48 °F    
Average Humidity 49    
Maximum Humidity 72    
Minimum Humidity 37    
Precipitation  
Precipitation 0.01 in - - ()
Sea Level Pressure  
Sea Level Pressure 29.82 in    
Wind  
Wind Speed 9 mph (SSE)    
Max Wind Speed 20 mph    
Max Gust Speed 30 mph    
Visibility 10 miles    
Events      
Averages and records for this station are not official NWS values.
T = Trace of Precipitation, MM = Missing Value Source: NWS Daily Summary

Daily Weather History Graph

Daily Weather History Graph

Search for Another Location

Airport or City:

Trip Planner

Search our weather history database for the weather conditions in past years. The results will help you decide how hot, cold, wet, or windy it might be!

Date:

Astronomy

Apr. 26, 2014 Rise Set
Actual Time 6:29 AM CDT 8:00 PM CDT
Civil Twilight 6:02 AM CDT 8:27 PM CDT
Nautical Twilight 5:29 AM CDT 9:00 PM CDT
Astronomical Twilight 4:55 AM CDT 9:35 PM CDT
Moon 4:48 AM CDT 5:33 PM CDT
Length of Visible Light 14h 25m
Length of Day
13h 31m
Waning Crescent, 8% of the Moon is Illuminated
Apr 26
Waning Crescent
Apr 29
New
May 6
First Quarter
May 14
Full
May 21
Last Quarter

Hourly Weather History & Observations

Time (CDT) Temp. Heat Index Dew Point Humidity Pressure Visibility Wind Dir Wind Speed Gust Speed Precip Events Conditions
12:15 AM 59.0 °F - 37.4 °F 45% 29.90 in 10.0 mi South 9.2 mph - N/A   Clear
12:35 AM 59.0 °F - 37.4 °F 45% 29.90 in 10.0 mi South 5.8 mph - N/A   Clear
12:55 AM 59.0 °F - 37.4 °F 45% 29.90 in 10.0 mi South 6.9 mph - N/A   Clear
1:15 AM 59.0 °F - 37.4 °F 45% 29.91 in 10.0 mi SW 3.5 mph - N/A   Clear
1:35 AM 55.4 °F - 39.2 °F 54% 29.91 in 10.0 mi Calm Calm - N/A   Clear
1:55 AM 55.4 °F - 37.4 °F 51% 29.90 in 10.0 mi Calm Calm - N/A   Clear
2:15 AM 57.2 °F - 37.4 °F 48% 29.89 in 10.0 mi South 4.6 mph - N/A   Clear
2:35 AM 57.2 °F - 37.4 °F 48% 29.89 in 10.0 mi SSW 3.5 mph - N/A   Clear
2:55 AM 55.4 °F - 37.4 °F 51% 29.89 in 10.0 mi SSW 3.5 mph - N/A   Clear
3:15 AM 57.2 °F - 37.4 °F 48% 29.89 in 10.0 mi South 4.6 mph - N/A   Clear
3:35 AM 55.4 °F - 39.2 °F 54% 29.88 in 10.0 mi SSE 6.9 mph - N/A   Clear
3:55 AM 55.4 °F - 37.4 °F 51% 29.88 in 10.0 mi Calm Calm - N/A   Clear
4:15 AM 53.6 °F - 37.4 °F 54% 29.87 in 10.0 mi South 4.6 mph - N/A   Clear
4:35 AM 55.4 °F - 37.4 °F 51% 29.87 in 10.0 mi South 5.8 mph - N/A   Partly Cloudy
4:55 AM 57.2 °F - 39.2 °F 51% 29.88 in 10.0 mi South 4.6 mph - N/A   Scattered Clouds
5:15 AM 55.4 °F - 39.2 °F 54% 29.89 in 10.0 mi SE 3.5 mph - N/A   Mostly Cloudy
5:35 AM 55.4 °F - 41.0 °F 58% 29.89 in 10.0 mi SSE 8.1 mph - N/A   Partly Cloudy
5:55 AM 55.4 °F - 41.0 °F 58% 29.88 in 10.0 mi SE 6.9 mph - N/A   Partly Cloudy
6:15 AM 57.2 °F - 41.0 °F 55% 29.89 in 10.0 mi ESE 3.5 mph - N/A   Scattered Clouds
6:35 AM 57.2 °F - 39.2 °F 51% 29.90 in 10.0 mi East 3.5 mph - N/A   Partly Cloudy
6:55 AM 59.0 °F - 39.2 °F 48% 29.90 in 10.0 mi SE 6.9 mph - N/A   Scattered Clouds
7:15 AM 57.2 °F - 42.8 °F 59% 29.91 in 10.0 mi South 6.9 mph - N/A   Mostly Cloudy
7:35 AM 55.4 °F - 46.4 °F 72% 29.90 in 10.0 mi SE 6.9 mph - 0.01 in   Overcast
7:55 AM 55.4 °F - 44.6 °F 67% 29.91 in 10.0 mi SE 4.6 mph - 0.01 in   Mostly Cloudy
8:15 AM 57.2 °F - 44.6 °F 63% 29.90 in 10.0 mi SSE 6.9 mph - N/A   Scattered Clouds
8:35 AM 57.2 °F - 44.6 °F 63% 29.90 in 10.0 mi SSE 9.2 mph - N/A   Scattered Clouds
9:15 AM 60.8 °F - 44.6 °F 55% 29.90 in 10.0 mi SSE 5.8 mph - N/A   Mostly Cloudy
9:35 AM 60.8 °F - 44.6 °F 55% 29.90 in 10.0 mi SSE 10.4 mph - N/A   Mostly Cloudy
9:55 AM 64.4 °F - 44.6 °F 49% 29.89 in 10.0 mi SSE 10.4 mph - N/A   Partly Cloudy
10:15 AM 66.2 °F - 46.4 °F 49% 29.89 in 10.0 mi South 9.2 mph - N/A   Clear
10:35 AM 69.8 °F - 46.4 °F 43% 29.89 in 10.0 mi SSE 11.5 mph - N/A   Partly Cloudy
10:55 AM 71.6 °F - 46.4 °F 41% 29.89 in 10.0 mi SSW 15.0 mph 20.7 mph N/A   Scattered Clouds
11:15 AM 73.4 °F - 48.2 °F 41% 29.89 in 10.0 mi South 13.8 mph - N/A   Partly Cloudy
11:35 AM 73.4 °F - 48.2 °F 41% 29.89 in 10.0 mi South 15.0 mph - N/A   Clear
11:55 AM 75.2 °F - 48.2 °F 38% 29.89 in 10.0 mi SW 15.0 mph 21.9 mph N/A   Clear
12:15 PM 75.2 °F - 50.0 °F 41% 29.88 in 10.0 mi South 10.4 mph 18.4 mph N/A   Clear
12:35 PM 75.2 °F - 51.8 °F 44% 29.87 in 10.0 mi South 15.0 mph 20.7 mph N/A   Clear
12:55 PM 75.2 °F - 53.6 °F 47% 29.86 in 10.0 mi South 15.0 mph 24.2 mph N/A   Clear
1:15 PM 75.2 °F - 51.8 °F 44% 29.85 in 10.0 mi South 15.0 mph 19.6 mph N/A   Clear
1:35 PM 77.0 °F - 53.6 °F 44% 29.84 in 10.0 mi South 13.8 mph 19.6 mph N/A   Clear
1:55 PM 78.8 °F - 53.6 °F 42% 29.83 in 10.0 mi South 15.0 mph 20.7 mph N/A   Clear
2:15 PM 78.8 °F - 55.4 °F 44% 29.83 in 10.0 mi SSE 13.8 mph 20.7 mph N/A   Clear
2:35 PM 80.6 °F 80.5 °F 55.4 °F 42% 29.81 in 10.0 mi South 11.5 mph 20.7 mph N/A   Clear
2:55 PM 80.6 °F 80.5 °F 55.4 °F 42% 29.80 in 10.0 mi SSE 17.3 mph 21.9 mph N/A   Clear
3:15 PM 80.6 °F 80.5 °F 55.4 °F 42% 29.79 in 10.0 mi South 13.8 mph 18.4 mph N/A   Clear
3:35 PM 80.6 °F 80.3 °F 53.6 °F 39% 29.77 in 10.0 mi South 18.4 mph 24.2 mph N/A   Clear
3:55 PM 80.6 °F 80.5 °F 55.4 °F 42% 29.76 in 10.0 mi South 16.1 mph 19.6 mph N/A   Clear
4:15 PM 80.6 °F 80.3 °F 53.6 °F 39% 29.75 in 10.0 mi SSE 17.3 mph 24.2 mph N/A   Clear
4:35 PM 80.6 °F - 51.8 °F 37% 29.74 in 10.0 mi South 16.1 mph 27.6 mph N/A   Clear
4:55 PM 80.6 °F 80.3 °F 53.6 °F 39% 29.74 in 10.0 mi South 15.0 mph 26.5 mph N/A   Clear
5:15 PM 80.6 °F 80.3 °F 53.6 °F 39% 29.73 in 10.0 mi SSE 19.6 mph 24.2 mph N/A   Clear
5:35 PM 80.6 °F - 51.8 °F 37% 29.73 in 10.0 mi South 16.1 mph 21.9 mph N/A   Clear
5:55 PM 78.8 °F - 51.8 °F 39% 29.73 in 10.0 mi South 18.4 mph 26.5 mph N/A   Clear
6:15 PM 78.8 °F - 51.8 °F 39% 29.72 in 10.0 mi South 15.0 mph 19.6 mph N/A   Clear
6:35 PM 78.8 °F - 53.6 °F 42% 29.72 in 10.0 mi South 16.1 mph 23.0 mph N/A   Clear
6:55 PM 78.8 °F - 53.6 °F 42% 29.72 in 10.0 mi SSE 16.1 mph 20.7 mph N/A   Clear
7:15 PM 77.0 °F - 53.6 °F 44% 29.71 in 10.0 mi SSE 18.4 mph 21.9 mph N/A   Clear
7:35 PM 75.2 °F - 53.6 °F 47% 29.71 in 10.0 mi SSE 11.5 mph - N/A   Clear
7:55 PM 75.2 °F - 53.6 °F 47% 29.71 in 10.0 mi SSE 16.1 mph 20.7 mph N/A   Clear
8:15 PM 73.4 °F - 53.6 °F 50% 29.71 in 10.0 mi SSE 17.3 mph 24.2 mph N/A   Clear
8:35 PM 73.4 °F - 55.4 °F 53% 29.70 in 10.0 mi SSE 13.8 mph - N/A   Clear
8:55 PM 73.4 °F - 55.4 °F 53% 29.70 in 10.0 mi SSE 13.8 mph - N/A   Clear
9:15 PM 73.4 °F - 55.4 °F 53% 29.71 in 10.0 mi SSE 12.7 mph 18.4 mph N/A   Clear
9:35 PM 73.4 °F - 55.4 °F 53% 29.71 in 10.0 mi South 15.0 mph 20.7 mph N/A   Clear
9:55 PM 73.4 °F - 57.2 °F 57% 29.71 in 10.0 mi South 12.7 mph 18.4 mph N/A   Clear
10:15 PM 73.4 °F - 57.2 °F 57% 29.70 in 10.0 mi South 15.0 mph 20.7 mph N/A   Clear
10:35 PM 73.4 °F - 57.2 °F 57% 29.70 in 10.0 mi South 16.1 mph 24.2 mph N/A   Clear
10:55 PM 73.4 °F - 59.0 °F 61% 29.69 in 10.0 mi South 15.0 mph 23.0 mph N/A   Clear
11:15 PM 73.4 °F - 59.0 °F 61% 29.69 in 10.0 mi South 16.1 mph 29.9 mph N/A   Clear
11:35 PM 73.4 °F - 59.0 °F 61% 29.69 in 10.0 mi South 19.6 mph 27.6 mph N/A   Clear
11:55 PM 73.4 °F - 60.8 °F 65% 29.68 in 10.0 mi South 15.0 mph 26.5 mph N/A   Clear